Weather History for Ireland West Airport Knock, Ireland

Change the Weather History Date:

Wednesday, November 7, 2012

  Actual Average Record
Temperature  
Mean Temperature 46 °F -  
Max Temperature 50 °F - - ()
Min Temperature 43 °F - - ()
Degree Days  
Heating Degree Days 18    
Moisture  
Dew Point 46 °F    
Average Humidity 94    
Maximum Humidity 100    
Minimum Humidity 86    
Precipitation  
Precipitation 0.12 in - - ()
Sea Level Pressure  
Sea Level Pressure 30.10 in    
Wind  
Wind Speed 12 mph ()    
Max Wind Speed 24 mph    
Max Gust Speed -    
Visibility 5.2 miles    
Events Fog , Rain    
T = Trace of Precipitation, MM = Missing Value Source: Averaged Metar Reports

Daily Weather History Graph

Daily Weather History Graph

Search for Another Location

Airport:

Trip Planner

Search our weather history database for the weather conditions in past years. The results will help you decide how hot, cold, wet, or windy it might be!

Date:

Astronomy

Nov. 07, 2012 Rise Set
Actual Time 7:47 AM GMT 4:49 PM GMT
Civil Twilight 7:09 AM GMT 5:27 PM GMT
Nautical Twilight 6:27 AM GMT 6:09 PM GMT
Astronomical Twilight 5:45 AM GMT 6:50 PM GMT
Moon No Moon Rise 1:48 PM GMT (11/7)
Length of Visible Light 10h 17m
Length of Day
9h 01m
Last Quarter, 45% of the Moon is Illuminated
Nov 7
Last Quarter
Nov 13
New
Nov 20
First Quarter
Nov 28
Full
Dec 6
Last Quarter

Hourly Weather History & Observations

Time (GMT) Temp. Windchill Dew Point Humidity Pressure Visibility Wind Dir Wind Speed Gust Speed Precip Events Conditions
12:00 AM 46 °F - 43 °F 86% 30.26 in - WSW 13.4 mph - -  
6:00 AM 46 °F - 43 °F 87% 30.19 in 16 mi SW 11.2 mph - - Rain Light Drizzle
8:00 AM 44.6 °F 41.4 °F 44.6 °F 100% 30.15 in 6.2 mi South 5.8 mph - N/A   Mostly Cloudy
8:30 AM 46.4 °F 41.9 °F 42.8 °F 87% 30.12 in 6.2 mi SSW 9.2 mph - N/A   Mostly Cloudy
9:00 AM 46.4 °F 40.4 °F 44.6 °F 93% 30.12 in 1.6 mi SW 13.8 mph - N/A   Light Drizzle
9:30 AM 46.4 °F 40.1 °F 46.4 °F 100% 30.12 in 1.6 mi SSW 15.0 mph - N/A   Light Drizzle
10:00 AM 46.4 °F 40.4 °F 46.4 °F 100% 30.12 in 0.9 mi SW 13.8 mph - N/A   Light Drizzle
10:30 AM 46.4 °F 41.1 °F 46.4 °F 100% 30.12 in 0.2 mi SSW 11.5 mph - N/A Fog Light Drizzle
11:00 AM 48.2 °F - 48.2 °F 100% 30.12 in 0.4 mi SSW 12.7 mph - N/A Fog , Rain Light Rain
11:30 AM 48.2 °F - 48.2 °F 100% 30.09 in 1.6 mi SW 12.7 mph - N/A Rain Light Rain
12:00 PM 49 °F - 48 °F 97% 30.12 in 4 mi SW 15.7 mph - - Rain Light Rain
12:00 PM 48.2 °F - 48.2 °F 100% 30.09 in 3.7 mi SW 15.0 mph - N/A Rain Light Rain
12:30 PM 50.0 °F - 48.2 °F 94% 30.09 in 5.0 mi SW 12.7 mph - N/A   Light Drizzle
1:00 PM 50.0 °F - 50.0 °F 100% 30.09 in 6.2 mi SW 15.0 mph - N/A   Mostly Cloudy
1:30 PM 50.0 °F - 48.2 °F 94% 30.09 in 3.7 mi WSW 18.4 mph - N/A Rain Light Rain
2:00 PM 48.2 °F - 48.2 °F 100% 30.06 in 6.2 mi WSW 21.9 mph - N/A Rain Light Rain
2:30 PM 50.0 °F - 46.4 °F 87% 30.06 in 4.3 mi WSW 18.4 mph - N/A   Mostly Cloudy
3:00 PM 50.0 °F - 48.2 °F 94% 30.06 in 6.2 mi WSW 23.0 mph - N/A   Mostly Cloudy
3:30 PM 48.2 °F - 46.4 °F 93% 30.06 in 6.2 mi West 24.2 mph - N/A   Partly Cloudy
4:00 PM 48.2 °F - 44.6 °F 87% 30.06 in 6.2 mi West 23.0 mph - N/A   Partly Cloudy
4:30 PM 48.2 °F - 44.6 °F 87% 30.06 in 6.2 mi West 18.4 mph - N/A   Scattered Clouds
5:00 PM 46.4 °F 39.8 °F 44.6 °F 93% 30.06 in 6.2 mi WSW 16.1 mph - N/A   Mostly Cloudy
6:00 PM 47 °F - 46 °F 94% 30.10 in 16 mi West 13.4 mph - -   Partly Cloudy